Location: *
(43.2048°N, 0.1612°E)
Time: 22:02:57
(UTC+00:00)

Resurs 1-4 Rocket - Pass Details

Date: 30 September 2023
Orbit: 800 x 812 km, 98.7° (Epoch: 05 December)

Event Time Altitude Azimuth Distance (km) Brightness Sun altitude
Rises 03:20:46 0° 358° (N) 3,320 5.6 -28.2°
Reaches altitude 10° 03:23:55 10° 338° (NNW) 2,386 4.6 -27.7°
Enters shadow 03:24:36 12° 332° (NNW) 2,234 4.3 -27.5°
